This is the latest recevied weather packets stored in our database for station/object WA1NHP. If no packets are shown the sender has not sent any weather packets the latest 10 day(s).
| Time | Temp. | Humidity | Pressure | Rain* | Wind** | Luminosity | Snow |
|---|---|---|---|---|---|---|---|
| 1787932444 | 23.89° C | 79% | 1023.9 hPa | 0 mm | - | 248 W/m² | - |
| 1787931844 | 23.89° C | 81% | 1023.9 hPa | 0 mm | - | 809 W/m² | - |
| 1787931244 | 23.89° C | 82% | 1023.9 hPa | 0 mm | - | 768 W/m² | - |
| 1787930644 | 23.89° C | 79% | 1023.9 hPa | 0 mm | - | 585 W/m² | - |
| 1787930043 | 23.33° C | 80% | 1023.9 hPa | 0 mm | - | 666 W/m² | - |
| 1787929444 | 23.33° C | 82% | 1023.9 hPa | 0 mm | - | 666 W/m² | - |
| 1787928844 | 22.22° C | 83% | 1023.9 hPa | 0 mm | - | 526 W/m² | - |
| 1787928244 | 22.78° C | 84% | 1023.9 hPa | 0 mm | - | 422 W/m² | - |
| 1787927044 | 22.22° C | 87% | 1023.9 hPa | 0 mm | - | 591 W/m² | - |
| 1787926444 | 21.67° C | 86% | 1023.9 hPa | 0 mm | - | 264 W/m² | - |
| 1787925843 | 21.67° C | 85% | 1023.9 hPa | 0 mm | - | 308 W/m² | - |
| 1787925244 | 21.67° C | 88% | 1023.9 hPa | 0 mm | - | 267 W/m² | - |
| 1787924644 | 21.11° C | 89% | 1023.9 hPa | 0 mm | - | 237 W/m² | - |
| 1787924044 | 21.11° C | 92% | 1023.9 hPa | 0 mm | - | 308 W/m² | - |
| 1787923444 | 20.56° C | 93% | 1023.9 hPa | 0 mm | - | 185 W/m² | - |
| 1787922844 | 20.56° C | 93% | 1023.9 hPa | 0 mm | - | 149 W/m² | - |
| 1787922244 | 20.56° C | 95% | 1023.9 hPa | 0 mm | - | 181 W/m² | - |
| 1787921644 | 20.56° C | 95% | 1023.9 hPa | 0 mm | - | 149 W/m² | - |
| 1787921044 | 20.56° C | 96% | 1023.9 hPa | 0 mm | - | 169 W/m² | - |
| 1787920444 | 20.56° C | 96% | 1023.9 hPa | 0 mm | - | 146 W/m² | - |
| 1787919844 | 20° C | 97% | 1023.9 hPa | 0 mm | - | 156 W/m² | - |
| 1787919244 | 20° C | 98% | 1023.9 hPa | 0 mm | - | 109 W/m² | - |
| 1787918644 | 20° C | 98% | 1023.9 hPa | 0 mm | - | 81 W/m² | - |
| 1787918043 | 19.44° C | 98% | 1023.9 hPa | 0 mm | - | 88 W/m² | - |
| 1787917444 | 19.44° C | 98% | 1023.9 hPa | 0 mm | - | 46 W/m² | - |
* Rain latest hour (hover to see other rain measurements)
** Current wind speed in m/s (hover to see current wind gust speed)